FW4684 Weather Reports


time (UTC)temp
C
wind
direction
speed
KPH
gust
KPH
rain 1hr
cm
rain 24hr
cm
rain mn
cm
humidity
%
barometer
mb
20260508194534 20 23 0.0 14.5 0.00 0.00 0.00 32 1016.0
20260508194024 20 337 1.6 9.7 0.00 0.00 0.00 34 1016.3
20260508193524 20 136 3.2 16.1 0.00 0.00 0.00 36 1016.1
20260508193025 20 72 4.8 16.1 0.00 0.00 0.00 35 1016.3
20260508192523 20 179 1.6 16.1 0.00 0.00 0.00 33 1016.2
20260508192020 20 85 3.2 17.7 0.00 0.00 0.00 35 1016.5
20260508191520 20 232 11.3 17.7 0.00 0.00 0.00 33 1016.6
20260508191018 20 148 4.8 12.9 0.00 0.00 0.00 32 1016.4
20260508190517 20 47 1.6 9.7 0.00 0.00 0.00 33 1016.7
20260508190019 19 37 3.2 9.7 0.00 0.00 0.00 34 1016.8
20260508185015 19 142 3.2 9.7 0.00 0.00 0.00 32 1017.0
20260508184521 19 167 0.0 6.4 0.00 0.00 0.00 32 1016.9
20260508184013 19 151 0.0 3.2 0.00 0.00 0.00 32 1016.9
20260508183517 18 68 0.0 9.7 0.00 0.00 0.00 35 1017.1
20260508183024 18 143 3.2 9.7 0.00 0.00 0.00 32 1017.1
20260508182511 18 168 1.6 8.0 0.00 0.00 0.00 33 1017.0
20260508182010 18 138 1.6 12.9 0.00 0.00 0.00 35 1016.9
20260508181514 18 64 6.4 12.9 0.00 0.00 0.00 35 1017.2
20260508181008 18 124 1.6 6.4 0.00 0.00 0.00 34 1017.4
20260508180507 18 127 0.0 11.3 0.00 0.00 0.00 32 1017.4
20260508180007 18 54 4.8 11.3 0.00 0.00 0.00 34 1017.5
20260508175007 18 281 3.2 16.1 0.00 0.00 0.00 33 1017.4
20260508174506 18 158 6.4 20.9 0.00 0.00 0.00 33 1017.5
20260508174005 18 151 3.2 20.9 0.00 0.00 0.00 33 1017.5
20260508173504 18 181 1.6 12.9 0.00 0.00 0.00 32 1017.4
20260508173001 18 162 4.8 12.9 0.00 0.00 0.00 29 1017.8
20260508172601 18 68 0.0 12.9 0.00 0.00 0.00 29 1017.8
20260508172059 19 240 3.2 12.9 0.00 0.00 0.00 28 1017.9
20260508171559 19 208 3.2 12.9 0.00 0.00 0.00 28 1017.9
20260508171057 20 254 8.0 12.9 0.00 0.00 0.00 23 1017.9
20260508170555 20 288 1.6 14.5 0.00 0.00 0.00 26 1018.1
20260508170054 20 237 6.4 14.5 0.00 0.00 0.00 26 1018.3
20260508165652 20 241 0.0 11.3 0.00 0.00 0.00 28 1018.4
20260508165054 19 239 1.6 11.3 0.00 0.00 0.00 30 1018.4
20260508164555 19 257 1.6 9.7 0.00 0.00 0.00 26 1018.6
20260508164051 19 350 1.6 9.7 0.00 0.00 0.00 18 1018.7
20260508163551 19 240 4.8 12.9 0.00 0.00 0.00 17 1018.7
20260508163050 20 232 4.8 12.9 0.00 0.00 0.00 20 1018.7
20260508162550 19 151 0.0 11.3 0.00 0.00 0.00 27 1018.8
20260508162149 18 236 1.6 11.3 0.00 0.00 0.00 30 1018.6
20260508161555 18 255 1.6 9.7 0.00 0.00 0.00 30 1018.8
20260508161147 17 338 4.8 12.9 0.00 0.00 0.00 27 1018.8
20260508160545 18 214 3.2 12.9 0.00 0.00 0.00 24 1018.9
20260508160044 18 212 0.0 9.7 0.00 0.00 0.00 30 1019.0
20260508155644 18 255 3.2 12.9 0.00 0.00 0.00 28 1019.2
20260508155046 18 268 3.2 12.9 0.00 0.00 0.00 28 1019.2
20260508154558 18 226 4.8 16.1 0.00 0.00 0.00 30 1019.3
20260508154041 17 283 8.0 16.1 0.00 0.00 0.00 30 1019.4
20260508153540 18 239 8.0 14.5 0.00 0.00 0.00 30 1019.4
20260508153041 18 41 1.6 6.4 0.00 0.00 0.00 28 1019.3
20260508152538 18 139 1.6 6.4 0.00 0.00 0.00 32 1019.4
20260508152038 18 143 0.0 9.7 0.00 0.00 0.00 31 1019.4
20260508151536 18 23 3.2 9.7 0.00 0.00 0.00 33 1019.4
20260508151036 18 131 1.6 6.4 0.00 0.00 0.00 36 1019.4
20260508150534 18 227 0.0 6.4 0.00 0.00 0.00 37 1019.4
20260508150051 17 252 0.0 6.4 0.00 0.00 0.00 37 1019.4
20260508145636 17 163 3.2 9.7 0.00 0.00 0.00 41 1019.6
20260508145035 17 124 0.0 4.8 0.00 0.00 0.00 39 1019.5
20260508144534 17 124 1.6 11.3 0.00 0.00 0.00 41 1019.7
20260508144035 16 108 1.6 11.3 0.00 0.00 0.00 39 1019.7
20260508143532 16 289 3.2 12.9 0.00 0.00 0.00 39 1019.8
20260508143041 16 264 1.6 9.7 0.00 0.00 0.00 40 1019.8
20260508142530 16 141 0.0 9.7 0.00 0.00 0.00 39 1019.9
20260508142029 16 65 3.2 9.7 0.00 0.00 0.00 39 1019.9
20260508141531 16 316 1.6 6.4 0.00 0.00 0.00 37 1019.8
20260508141031 16 237 0.0 4.8 0.00 0.00 0.00 37 1019.9
20260508140529 16 283 1.6 4.8 0.00 0.00 0.00 36 1019.9
20260508140029 16 166 0.0 4.8 0.00 0.03 0.00 37 1020.0
20260508135627 15 330 0.0 6.4 0.00 0.03 0.00 40 1019.9
20260508135025 14 332 0.0 12.9 0.00 0.03 0.00 39 1019.9
20260508134525 13 344 1.6 12.9 0.00 0.03 0.00 42 1020.0
20260508134025 13 71 3.2 9.7 0.00 0.03 0.00 43 1020.1
20260508133525 14 33 1.6 9.7 0.00 0.03 0.00 43 1020.0
20260508133024 13 48 1.6 9.7 0.00 0.03 0.00 46 1020.0
20260508132522 13 347 1.6 11.3 0.00 0.03 0.00 41 1020.1
20260508132021 13 65 1.6 16.1 0.00 0.03 0.00 43 1020.1
20260508131522 13 49 8.0 16.1 0.00 0.03 0.00 44 1020.0
20260508131020 13 39 4.8 8.0 0.00 0.03 0.00 43 1020.0
20260508130520 13 51 1.6 8.0 0.00 0.03 0.00 45 1020.0
20260508130018 13 23 3.2 8.0 0.00 0.03 0.00 44 1019.9
20260508125619 12 77 1.6 9.7 0.00 0.03 0.00 47 1019.8
20260508125019 11 21 3.2 9.7 0.00 0.03 0.00 45 1019.9
20260508124516 11 80 3.2 6.4 0.00 0.03 0.00 47 1019.9
20260508124016 11 67 3.2 8.0 0.00 0.03 0.00 48 1019.9
20260508123515 11 55 3.2 8.0 0.00 0.03 0.00 48 1019.8
20260508123015 11 65 1.6 8.0 0.00 0.03 0.00 50 1019.9
20260508122513 10 46 3.2 8.0 0.00 0.03 0.00 50 1019.9
20260508122014 10 60 1.6 6.4 0.00 0.03 0.00 51 1019.9
20260508121513 10 333 1.6 4.8 0.00 0.03 0.00 51 1019.8
20260508121012 10 69 0.0 3.2 0.00 0.03 0.00 52 1019.7
20260508120511 10 356 0.0 3.2 0.00 0.03 0.00 53 1019.7
20260508120010 10 83 0.0 0.0 0.00 0.23 0.00 53 1019.6
20260508115609 8 120 0.0 1.6 0.00 0.23 0.00 53 1019.5
20260508115009 8 123 0.0 1.6 0.00 0.23 0.00 52 1019.5
20260508114509 7 130 0.0 4.8 0.00 0.23 0.00 51 1019.5
20260508114007 7 133 0.0 6.4 0.00 0.23 0.00 49 1019.3
20260508113507 7 52 1.6 6.4 0.00 0.23 0.00 45 1019.3
20260508113005 6 81 0.0 1.6 0.00 0.23 0.00 45 1019.2
20260508112505 6 54 0.0 0.0 0.00 0.23 0.00 46 1019.1
20260508112002 5 54 0.0 0.0 0.00 0.23 0.00 45 1019.1
20260508111503 5 52 0.0 1.6 0.00 0.23 0.00 45 1019.0
20260508111100 5 52 0.0 1.6 0.00 0.23 0.00 45 1018.8
20260508110557 5 43 0.0 1.6 0.00 0.23 0.00 45 1018.7
20260508110107 5 46 0.0 1.6 0.00 0.30 0.00 45 1018.6
20260508105556 5 82 0.0 1.6 0.00 0.30 0.00 45 1018.7
20260508105055 5 82 0.0 1.6 0.00 0.30 0.00 45 1018.6
20260508104605 5 82 0.0 1.6 0.00 0.30 0.00 44 1018.5
20260508104054 5 79 0.0 0.0 0.00 0.30 0.00 44 1018.4
20260508103552 5 80 0.0 1.6 0.00 0.30 0.00 44 1018.3
20260508103054 6 80 0.0 1.6 0.00 0.30 0.00 44 1018.2
20260508102550 6 80 0.0 0.0 0.00 0.30 0.00 43 1018.0
20260508102050 6 86 0.0 0.0 0.00 0.30 0.00 43 1018.0
20260508101549 6 86 0.0 0.0 0.00 0.30 0.00 43 1017.7
20260508101047 6 86 0.0 0.0 0.00 0.30 0.00 42 1017.6
20260508100546 6 86 0.0 1.6 0.00 0.30 0.00 42 1017.6
20260508100044 6 86 0.0 1.6 0.00 0.30 0.00 42 1017.4
20260508095544 6 83 0.0 1.6 0.00 0.30 0.00 42 1017.6
20260508095046 6 83 0.0 1.6 0.00 0.30 0.00 42 1017.6
20260508094547 6 148 0.0 0.0 0.00 0.30 0.00 43 1017.4
20260508094042 6 148 0.0 0.0 0.00 0.30 0.00 43 1017.4
20260508093546 6 148 0.0 0.0 0.00 0.30 0.00 44 1017.4
20260508093040 6 159 0.0 0.0 0.00 0.30 0.00 46 1017.4
20260508092537 6 159 0.0 0.0 0.00 0.30 0.00 48 1017.3
20260508092038 7 159 0.0 0.0 0.00 0.30 0.00 48 1017.4
20260508091535 7 159 0.0 0.0 0.00 0.30 0.00 50 1017.3
20260508091034 7 159 0.0 0.0 0.00 0.30 0.00 50 1017.2
20260508090633 7 159 0.0 0.0 0.00 0.30 0.00 52 1017.2
20260508090036 7 159 0.0 1.6 0.00 0.30 0.00 53 1017.1
20260508085532 7 49 0.0 0.0 0.00 0.30 0.00 57 1017.2
20260508085029 7 49 0.0 0.0 0.00 0.30 0.00 57 1017.1
20260508084527 7 49 0.0 0.0 0.00 0.30 0.00 58 1017.1
20260508084027 7 49 0.0 0.0 0.00 0.30 0.00 61 1017.0
20260508083527 7 49 0.0 0.0 0.00 0.30 0.00 61 1016.8
20260508083024 8 49 0.0 0.0 0.00 0.30 0.00 62 1016.9
20260508082522 8 49 0.0 0.0 0.00 0.30 0.00 63 1016.9
20260508082021 8 49 0.0 0.0 0.00 0.30 0.00 64 1017.0
20260508081525 8 49 0.0 0.0 0.00 0.30 0.00 65 1016.9
20260508081018 8 49 0.0 0.0 0.00 0.30 0.00 65 1016.7
20260508080517 8 49 0.0 0.0 0.00 0.30 0.00 66 1016.7
20260508080029 8 49 0.0 0.0 0.00 0.30 0.00 66 1016.8
20260508075515 9 56 1.6 4.8 0.00 0.30 0.00 66 1016.6
20260508075015 9 56 0.0 4.8 0.00 0.30 0.00 66 1016.5
20260508074514 9 71 0.0 3.2 0.00 0.30 0.00 65 1016.7
20260508074012 9 169 0.0 3.2 0.00 0.30 0.00 65 1016.5
20260508073511 10 276 0.0 1.6 0.00 0.30 0.00 65 1016.5
20260508073008 10 276 0.0 1.6 0.00 0.30 0.00 63 1016.4
20260508072506 10 275 0.0 3.2 0.00 0.30 0.00 63 1016.4
20260508072006 10 67 0.0 4.8 0.00 0.30 0.00 61 1016.3
20260508071505 10 262 0.0 3.2 0.00 0.30 0.00 61 1016.2
20260508071005 11 141 0.0 9.7 0.00 0.30 0.00 60 1016.3
20260508070504 11 314 1.6 9.7 0.00 0.30 0.00 59 1016.2
20260508070005 11 270 0.0 9.7 0.00 0.33 0.00 58 1016.0
20260508065501 11 64 0.0 9.7 0.00 0.33 0.00 59 1016.2
20260508065001 11 64 0.0 9.7 0.00 0.33 0.00 59 1016.1
20260508064505 11 65 0.0 9.7 0.00 0.33 0.00 58 1016.0
20260508064059 11 37 0.0 3.2 0.00 0.33 0.00 57 1016.0
20260508063600 11 56 0.0 3.2 0.00 0.33 0.00 57 1016.0
20260508063059 11 292 0.0 3.2 0.00 0.33 0.00 57 1015.9
20260508062557 12 72 0.0 12.9 0.00 0.33 0.00 57 1015.8
20260508062101 11 64 1.6 12.9 0.00 0.33 0.00 56 1015.7
20260508061556 11 47 0.0 8.0 0.00 0.33 0.00 57 1015.7
20260508061056 11 17 0.0 9.7 0.00 0.33 0.00 57 1015.7
20260508060554 11 39 1.6 9.7 0.00 0.33 0.00 58 1015.6
20260508060057 10 39 0.0 6.4 0.00 0.33 0.00 61 1015.7
20260508055556 10 323 0.0 3.2 0.00 0.33 0.00 62 1015.7
20260508054556 10 150 0.0 3.2 0.00 0.33 0.00 63 1015.8
20260508054050 10 146 0.0 1.6 0.00 0.33 0.00 63 1015.8
20260508053553 11 143 0.0 3.2 0.00 0.33 0.00 62 1015.8
20260508053054 11 94 0.0 3.2 0.00 0.33 0.00 61 1015.7
20260508052546 11 313 0.0 3.2 0.00 0.33 0.00 60 1015.8
20260508052044 11 96 0.0 3.2 0.00 0.33 0.00 58 1015.7
20260508051546 12 158 0.0 9.7 0.00 0.33 0.00 57 1015.6
20260508051042 11 47 1.6 12.9 0.00 0.33 0.00 58 1015.7
20260508050543 12 67 1.6 16.1 0.00 0.33 0.00 58 1015.6
20260508050051 11 56 1.6 16.1 0.00 0.41 0.00 58 1015.6
20260508045539 11 77 1.6 9.7 0.00 0.41 0.00 58 1015.4
20260508044541 11 79 0.0 9.7 0.00 0.41 0.00 59 1015.2
20260508044038 11 69 6.4 11.3 0.00 0.41 0.00 58 1015.2
20260508043536 12 49 1.6 11.3 0.00 0.41 0.00 59 1015.2
20260508043035 12 70 3.2 9.7 0.00 0.41 0.00 58 1015.3
20260508042535 12 51 4.8 11.3 0.00 0.41 0.00 58 1015.3
20260508042033 12 37 3.2 9.7 0.00 0.41 0.00 58 1015.1
20260508041532 12 56 3.2 9.7 0.00 0.41 0.00 58 1015.2
20260508041032 12 42 3.2 12.9 0.00 0.41 0.00 55 1015.2
20260508040533 13 63 4.8 12.9 0.00 0.41 0.00 52 1015.3
20260508040042 13 89 3.2 20.9 0.00 0.43 0.00 51 1015.4
20260508035526 13 41 9.7 20.9 0.00 0.43 0.00 51 1015.3
20260508034537 13 4 6.4 19.3 0.00 0.43 0.00 51 1015.1
20260508034026 13 44 3.2 17.7 0.00 0.43 0.00 51 1015.1
20260508033524 13 282 6.4 22.5 0.00 0.43 0.00 51 1015.1
20260508033024 13 44 4.8 22.5 0.00 0.43 0.00 51 1015.1
20260508032524 13 304 3.2 19.3 0.00 0.43 0.00 51 1015.1
20260508032025 13 18 4.8 19.3 0.00 0.43 0.00 51 1015.1
20260508031522 13 45 8.0 19.3 0.00 0.43 0.00 51 1015.1
20260508031023 13 15 3.2 24.1 0.00 0.43 0.00 51 1015.0
20260508030520 13 40 4.8 24.1 0.00 0.43 0.00 51 1015.0
20260508030018 13 347 3.2 29.0 0.00 0.46 0.00 51 1014.9
20260508025518 13 258 9.7 24.1 0.00 0.46 0.00 51 1014.6
20260508024523 13 56 4.8 25.7 0.00 0.46 0.00 51 1014.5
20260508024017 13 330 11.3 25.7 0.00 0.46 0.00 52 1014.4
20260508023515 13 332 3.2 24.1 0.00 0.46 0.00 52 1014.3
20260508023015 13 334 8.0 19.3 0.00 0.46 0.00 52 1014.4
20260508022513 13 301 9.7 24.1 0.00 0.46 0.00 52 1014.2
20260508022014 13 319 8.0 25.7 0.00 0.46 0.00 52 1014.3
20260508021512 13 29 8.0 30.6 0.00 0.46 0.00 53 1014.3
20260508021011 13 33 9.7 30.6 0.00 0.46 0.00 53 1014.2
20260508020512 13 343 6.4 24.1 0.00 0.46 0.00 53 1014.3
20260508020010 13 67 8.0 17.7 0.00 0.51 0.00 54 1014.3
20260508015511 13 29 4.8 17.7 0.00 0.51 0.00 54 1014.2
20260508014509 13 27 4.8 17.7 0.00 0.51 0.00 54 1014.2
20260508014007 13 46 9.7 17.7 0.00 0.51 0.00 54 1014.2
20260508013505 12 30 6.4 17.7 0.00 0.51 0.00 54 1014.0
20260508013005 13 340 6.4 17.7 0.00 0.51 0.00 54 1013.8
20260508012506 13 9 6.4 17.7 0.00 0.51 0.00 54 1013.8
20260508012003 13 29 6.4 14.5 0.00 0.51 0.00 54 1013.8
20260508011503 13 345 6.4 12.9 0.00 0.51 0.00 54 1013.7
20260508011001 13 335 6.4 11.3 0.00 0.51 0.00 54 1013.7
20260508010502 13 341 4.8 11.3 0.00 0.51 0.00 54 1013.6
20260508010058 13 328 1.6 19.3 0.00 0.71 0.00 53 1013.7
20260508005600 13 326 4.8 19.3 0.00 0.71 0.00 52 1013.7
20260508004600 13 42 3.2 12.9 0.00 0.71 0.00 53 1013.7
20260508004056 13 297 1.6 14.5 0.00 0.71 0.00 52 1013.6
20260508003558 13 308 3.2 14.5 0.00 0.71 0.00 52 1013.6
20260508003054 13 347 6.4 12.9 0.00 0.71 0.00 52 1013.6
20260508002552 13 332 3.2 14.5 0.00 0.71 0.00 52 1013.6
20260508002052 13 334 4.8 16.1 0.00 0.71 0.00 51 1013.4
20260508001554 13 25 1.6 16.1 0.00 0.71 0.00 51 1013.4
20260508001050 13 335 8.0 17.7 0.00 0.71 0.00 51 1013.5
20260508000549 13 319 4.8 22.5 0.00 0.71 0.00 51 1013.3
20260508000055 13 345 9.7 22.5 0.00 0.84 0.00 51 1013.4
20260507235550 13 47 9.7 19.3 0.00 0.84 0.00 51 1013.3
20260507234554 13 30 8.0 22.5 0.00 0.84 0.00 51 1013.5
20260507234045 13 64 11.3 19.3 0.00 0.84 0.00 52 1013.5
20260507233545 14 56 9.7 22.5 0.00 0.84 0.00 52 1013.6
20260507233108 14 27 11.3 27.4 0.00 0.84 0.00 51 1013.5
20260507232545 14 44 17.7 33.8 0.00 0.84 0.00 51 1013.6
20260507232047 14 11 17.7 33.8 0.00 0.84 0.00 51 1013.4
20260507231540 14 46 17.7 32.2 0.00 0.84 0.00 51 1013.2
20260507231038 14 39 11.3 24.1 0.00 0.84 0.00 51 1013.3
20260507230537 14 42 11.3 29.0 0.00 0.84 0.00 51 1013.2
20260507230036 14 345 14.5 29.0 0.00 0.84 0.00 51 1013.4
20260507225534 15 53 11.3 22.5 0.00 0.84 0.00 51 1013.1
20260507224532 15 10 3.2 35.4 0.00 0.84 0.00 52 1013.2
20260507224132 15 52 17.7 35.4 0.00 0.84 0.00 52 1013.2
20260507223533 15 49 17.7 30.6 0.00 0.84 0.00 52 1013.1
20260507223130 15 354 11.3 33.8 0.00 0.84 0.00 51 1012.9
20260507222529 15 20 16.1 33.8 0.00 0.84 0.00 52 1012.9
20260507222025 15 41 17.7 32.2 0.00 0.84 0.00 52 1012.7
20260507221531 15 316 17.7 30.6 0.00 0.84 0.00 50 1012.8
20260507221021 16 6 17.7 30.6 0.00 0.84 0.00 50 1012.7
20260507220519 16 40 16.1 27.4 0.00 0.84 0.00 50 1012.5
20260507220021 16 18 8.0 22.5 0.00 0.84 0.00 51 1012.4
20260507215520 16 356 12.9 32.2 0.00 0.84 0.00 51 1012.3
20260507214517 16 349 4.8 35.4 0.00 0.84 0.00 52 1012.2
20260507214015 16 11 16.1 32.2 0.00 0.84 0.00 52 1012.2
20260507213513 16 322 14.5 33.8 0.00 0.84 0.00 50 1012.0
20260507213019 17 338 16.1 33.8 0.00 0.84 0.00 51 1011.7
20260507212509 17 342 16.1 27.4 0.00 0.84 0.00 49 1011.5
20260507212007 18 23 12.9 25.7 0.00 0.84 0.00 49 1011.3
20260507211507 18 41 9.7 24.1 0.00 0.84 0.00 47 1011.1
20260507211007 18 285 9.7 25.7 0.00 0.84 0.00 51 1011.0
20260507210504 18 52 14.5 27.4 0.00 0.84 0.00 49 1011.0
20260507210002 18 359 11.3 30.6 0.00 0.84 0.00 49 1010.9
20260507205501 18 304 8.0 30.6 0.00 0.84 0.00 48 1011.0
20260507204600 19 357 3.2 29.0 0.00 0.84 0.00 48 1010.8
20260507204102 18 37 12.9 27.4 0.00 0.84 0.00 47 1010.8
20260507203556 19 85 9.7 27.4 0.00 0.84 0.00 48 1010.6
20260507203056 19 343 11.3 27.4 0.00 0.84 0.00 48 1010.6
20260507202558 20 355 8.0 24.1 0.00 0.84 0.00 47 1010.4
20260507202054 20 44 3.2 22.5 0.00 0.84 0.00 48 1010.4
20260507201555 19 294 8.0 30.6 0.00 0.84 0.00 48 1010.5
20260507201053 20 243 12.9 32.2 0.00 0.84 0.00 47 1010.8
20260507200555 20 316 16.1 32.2 0.00 0.84 0.00 48 1010.6
20260507200057 19 321 11.3 27.4 0.00 0.84 0.00 50 1010.4
20260507195552 19 345 16.1 32.2 0.00 0.84 0.00 49 1010.4